Terminal Aerodrome Forecast
Issued by NWS

Home | Current Version | Previous Version | Text Only | Print | Product List | Glossary On
Versions: 1 2 3 4 5 6 7 8 9 10 11 12 13 14 15 16 17 18 19 20 21 22 23 24 25 26 27 28 29 30 31 32 33 34 35 36 37 38 39 40 41 42 43 44 45 46 47 48 49 50
000
FTUS45 KBOU 272117 AAD
TAFBJC
TAF AMD
KBJC 272117Z 2721/2818 36004KT P6SM VCSH BKN015 BKN050
     FM272300 05005KT P6SM SCT020 BKN050
     FM280200 VRB05KT P6SM FEW040 SCT080 BKN120
     FM280800 25006KT P6SM FEW035 SCT070 BKN100
     FM281000 30006KT P6SM FEW005 SCT100
     FM281200 35006KT P6SM VCFG BKN005
     FM281600 VRB05KT P6SM SCT005=

USA.gov is the U.S. government's official web portal to all federal, state and local government web resources and services.